Starlink 30321

operational
NORAD ID: 57679 Int'l Des: 2023-124 Owner: SPXS Country: US Constellation: starlink
LEOCIRCULAR

Starlink 30321について

説明を読み込み中...

リアルタイム位置

3D地球を読み込み中...

次回通過

高度履歴

Altitude vs Time

uPlot chart will show altitude changes over time

軌道要素

1 57679U 23124S 25353.89175039 .00005042 00000-0 18225-3 0 9998
2 57679 53.1588 217.2491 0001821 96.4237 263.6971 15.30202010131356
Epoch: Dec 19, 2025 • Age: 10 hours

現在のステータス

高度 491.4 km
速度 7.62 km/s
衛星直下点 -44.95°S, 123.75°W
打ち上げ日 Aug 22, 2023
運用期間 2.3 years
タイプ internet

技術仕様

分類 Payload
質量 730.00 kg
乾燥質量 700.00 kg
総質量 730.00 kg
長さ 0.30 m
直径 4.10 m
スパン 29.00 m
形状 Box + pan
製造者 SPXS
バスタイプ Starlink V2M
フェーズステータス In Orbit
所有者/国 SPXS/US

大規模コンステレーション

Loading constellations...